Time,TemperatureF,DewpointF,PressureIn,WindDirection,WindDirectionDegrees,WindSpeedMPH,WindSpeedGustMPH,Humidity,HourlyPrecipIn,Conditions,Clouds,dailyrainin,SolarRadiationWatts/m^2,SoftwareType,DateUTC
2013-05-21 00:02:00,44.0,31.0,-100.00,North,350,6.0,7.0,61,0.00,,,0.00,0.000000,,2013-05-21 06:02:00,
2013-05-21 00:32:00,45.0,33.0,-100.00,NNE,19,6.0,7.0,63,0.00,,,0.00,0.000000,,2013-05-21 06:32:00,
2013-05-21 00:42:00,45.0,33.0,-100.00,NNE,19,6.0,7.0,63,0.00,,,0.00,0.000000,,2013-05-21 06:42:00,
2013-05-21 00:52:00,45.0,33.0,-100.00,NNE,19,6.0,7.0,63,0.00,,,0.00,0.000000,,2013-05-21 06:52:00,
2013-05-21 01:01:00,45.0,33.0,-100.00,NNE,19,6.0,7.0,63,0.00,,,0.00,0.000000,,2013-05-21 07:01:00,
2013-05-21 01:32:00,45.0,32.0,-100.00,NW,321,4.0,7.0,60,0.00,,,0.00,0.000000,,2013-05-21 07:32:00,
2013-05-21 01:42:00,45.0,32.0,-100.00,NW,321,4.0,7.0,60,0.00,,,0.00,0.000000,,2013-05-21 07:42:00,
2013-05-21 01:52:00,45.0,32.0,-100.00,NW,321,4.0,7.0,60,0.00,,,0.00,0.000000,,2013-05-21 07:52:00,
2013-05-21 02:01:00,45.0,32.0,-100.00,NW,321,4.0,7.0,60,0.00,,,0.00,0.000000,,2013-05-21 08:01:00,
2013-05-21 03:33:00,43.0,30.0,-100.00,SSE,162,3.0,7.0,60,-99.99,,,0.00,0.000000,,2013-05-21 09:33:00,
2013-05-21 03:42:00,43.0,30.0,-100.00,SSE,162,3.0,7.0,60,-99.99,,,0.00,0.000000,,2013-05-21 09:42:00,
2013-05-21 03:53:00,43.0,30.0,-100.00,SSE,162,3.0,7.0,60,-99.99,,,0.00,0.000000,,2013-05-21 09:53:00,
2013-05-21 04:02:00,43.0,30.0,-100.00,SSE,162,3.0,7.0,60,-99.99,,,0.00,0.000000,,2013-05-21 10:02:00,
2013-05-21 04:33:00,41.0,31.0,-100.00,WSW,242,3.0,8.0,66,0.00,,,0.00,0.000000,,2013-05-21 10:33:00,
2013-05-21 04:42:00,41.0,31.0,-100.00,WSW,242,3.0,8.0,66,0.00,,,0.00,0.000000,,2013-05-21 10:42:00,
2013-05-21 04:52:00,41.0,31.0,-100.00,WSW,242,3.0,8.0,66,0.00,,,0.00,0.000000,,2013-05-21 10:52:00,
2013-05-21 05:02:00,41.0,31.0,-100.00,WSW,242,3.0,8.0,66,0.00,,,0.00,0.000000,,2013-05-21 11:02:00,
2013-05-21 05:42:00,41.0,31.0,-100.00,West,274,3.0,6.0,68,0.00,,,0.00,0.000000,,2013-05-21 11:42:00,
2013-05-21 05:52:00,41.0,31.0,-100.00,West,274,3.0,6.0,68,0.00,,,0.00,0.000000,,2013-05-21 11:52:00,
2013-05-21 06:01:00,41.0,31.0,-100.00,West,274,3.0,6.0,68,0.00,,,0.00,0.000000,,2013-05-21 12:01:00,
2013-05-21 06:32:00,39.0,31.0,-100.00,NE,37,5.0,6.0,73,-99.99,,,-99.99,1.000000,,2013-05-21 12:32:00,
2013-05-21 06:42:00,39.0,31.0,-100.00,NE,37,5.0,6.0,73,-99.99,,,-99.99,1.000000,,2013-05-21 12:42:00,
2013-05-21 06:52:00,39.0,31.0,-100.00,NE,37,5.0,6.0,73,-99.99,,,-99.99,1.000000,,2013-05-21 12:52:00,
2013-05-21 07:01:00,39.0,31.0,-100.00,NE,37,5.0,6.0,73,-99.99,,,-99.99,1.000000,,2013-05-21 13:01:00,
2013-05-21 07:32:00,45.0,35.0,-100.00,NE,39,4.0,6.0,67,0.00,,,-99.99,85.000000,,2013-05-21 13:32:00,
2013-05-21 08:32:00,50.0,34.0,-100.00,ENE,77,5.0,6.0,53,0.00,,,0.00,287.000000,,2013-05-21 14:32:00,
2013-05-21 10:32:00,57.0,33.0,-100.00,SSW,210,6.0,12.0,40,-99.99,,,0.00,710.000000,,2013-05-21 16:32:00,
2013-05-21 10:42:00,57.0,33.0,-100.00,SSW,210,6.0,12.0,40,-99.99,,,0.00,710.000000,,2013-05-21 16:42:00,
2013-05-21 10:52:00,57.0,33.0,-100.00,SSW,210,6.0,12.0,40,-99.99,,,0.00,710.000000,,2013-05-21 16:52:00,
2013-05-21 11:02:00,57.0,33.0,-100.00,SSW,210,6.0,12.0,40,-99.99,,,0.00,710.000000,,2013-05-21 17:02:00,
2013-05-21 11:33:00,60.0,31.0,-100.00,SSW,193,6.0,11.0,33,0.00,,,0.00,896.000000,,2013-05-21 17:33:00,
2013-05-21 11:44:00,60.0,31.0,-100.00,SSW,193,6.0,11.0,33,0.00,,,0.00,896.000000,,2013-05-21 17:44:00,
2013-05-21 11:52:00,60.0,31.0,-100.00,SSW,193,6.0,11.0,33,0.00,,,0.00,896.000000,,2013-05-21 17:52:00,
2013-05-21 12:01:00,60.0,31.0,-100.00,SSW,193,6.0,11.0,33,0.00,,,0.00,896.000000,,2013-05-21 18:01:00,
2013-05-21 12:32:00,64.0,30.0,-100.00,WNW,303,6.0,16.0,28,0.00,,,0.00,967.000000,,2013-05-21 18:32:00,
2013-05-21 12:42:00,64.0,30.0,-100.00,WNW,303,6.0,16.0,28,0.00,,,0.00,967.000000,,2013-05-21 18:42:00,
2013-05-21 12:52:00,64.0,30.0,-100.00,WNW,303,6.0,16.0,28,0.00,,,0.00,967.000000,,2013-05-21 18:52:00,
2013-05-21 13:01:00,64.0,30.0,-100.00,WNW,303,6.0,16.0,28,0.00,,,0.00,967.000000,,2013-05-21 19:01:00,
2013-05-21 13:32:00,64.0,27.0,-100.00,WSW,245,11.0,24.0,25,0.00,,,-99.99,1004.000000,,2013-05-21 19:32:00,
2013-05-21 13:42:00,64.0,27.0,-100.00,WSW,245,11.0,24.0,25,0.00,,,-99.99,1004.000000,,2013-05-21 19:42:00,
2013-05-21 13:52:00,64.0,27.0,-100.00,WSW,245,11.0,24.0,25,0.00,,,-99.99,1004.000000,,2013-05-21 19:52:00,
2013-05-21 14:03:00,64.0,27.0,-100.00,WSW,245,11.0,24.0,25,0.00,,,-99.99,1004.000000,,2013-05-21 20:03:00,
2013-05-21 14:33:00,67.0,29.0,-100.00,WSW,253,11.0,22.0,24,0.00,,,0.00,1029.000000,,2013-05-21 20:33:00,
2013-05-21 14:42:00,67.0,29.0,-100.00,WSW,253,11.0,22.0,24,0.00,,,0.00,1029.000000,,2013-05-21 20:42:00,
2013-05-21 14:52:00,67.0,29.0,-100.00,WSW,253,11.0,22.0,24,0.00,,,0.00,1029.000000,,2013-05-21 20:52:00,
2013-05-21 15:01:00,67.0,29.0,-100.00,WSW,253,11.0,22.0,24,0.00,,,0.00,1029.000000,,2013-05-21 21:01:00,
2013-05-21 15:33:00,68.0,22.0,-100.00,WSW,249,12.0,24.0,17,0.00,,,-99.99,964.000000,,2013-05-21 21:33:00,
2013-05-21 15:43:00,68.0,22.0,-100.00,WSW,249,12.0,24.0,17,0.00,,,-99.99,964.000000,,2013-05-21 21:43:00,
2013-05-21 15:54:00,68.0,22.0,-100.00,WSW,249,12.0,24.0,17,0.00,,,-99.99,964.000000,,2013-05-21 21:54:00,
2013-05-21 16:02:00,68.0,22.0,-100.00,WSW,249,12.0,24.0,17,0.00,,,-99.99,964.000000,,2013-05-21 22:02:00,
2013-05-21 16:33:00,69.0,25.0,-100.00,WSW,258,12.0,24.0,19,0.00,,,0.00,862.000000,,2013-05-21 22:33:00,
2013-05-21 16:42:00,69.0,25.0,-100.00,WSW,258,12.0,24.0,19,0.00,,,0.00,862.000000,,2013-05-21 22:42:00,
2013-05-21 16:52:00,69.0,25.0,-100.00,WSW,258,12.0,24.0,19,0.00,,,0.00,862.000000,,2013-05-21 22:52:00,
2013-05-21 17:02:00,69.0,25.0,-100.00,WSW,258,12.0,24.0,19,0.00,,,0.00,862.000000,,2013-05-21 23:02:00,
2013-05-21 17:32:00,69.0,24.0,-100.00,West,266,12.0,24.0,18,0.00,,,0.00,723.000000,,2013-05-21 23:32:00,
2013-05-21 17:42:00,69.0,24.0,-100.00,West,266,12.0,24.0,18,0.00,,,0.00,723.000000,,2013-05-21 23:42:00,
2013-05-21 17:52:00,69.0,24.0,-100.00,West,266,12.0,24.0,18,0.00,,,0.00,723.000000,,2013-05-21 23:52:00,
2013-05-21 18:01:00,69.0,24.0,-100.00,West,266,12.0,24.0,18,0.00,,,0.00,723.000000,,2013-05-22 00:01:00,
2013-05-21 19:32:00,64.0,22.0,-100.00,WSW,252,15.0,21.0,20,-99.99,,,0.00,274.000000,,2013-05-22 01:32:00,
2013-05-21 19:42:00,64.0,22.0,-100.00,WSW,252,15.0,21.0,20,-99.99,,,0.00,274.000000,,2013-05-22 01:42:00,
2013-05-21 19:52:00,64.0,22.0,-100.00,WSW,252,15.0,21.0,20,-99.99,,,0.00,274.000000,,2013-05-22 01:52:00,
2013-05-21 20:01:00,64.0,22.0,-100.00,WSW,252,15.0,21.0,20,-99.99,,,0.00,274.000000,,2013-05-22 02:01:00,
2013-05-21 20:32:00,59.0,21.0,-100.00,West,276,7.0,21.0,23,0.00,,,0.00,104.000000,,2013-05-22 02:32:00,
2013-05-21 20:42:00,59.0,21.0,-100.00,West,276,7.0,21.0,23,0.00,,,0.00,104.000000,,2013-05-22 02:42:00,
2013-05-21 20:52:00,59.0,21.0,-100.00,West,276,7.0,21.0,23,0.00,,,0.00,104.000000,,2013-05-22 02:52:00,
2013-05-21 21:01:00,59.0,21.0,-100.00,West,276,7.0,21.0,23,0.00,,,0.00,104.000000,,2013-05-22 03:01:00,
2013-05-21 21:33:00,56.0,23.0,-100.00,WNW,298,8.0,14.0,28,0.00,,,0.00,1.000000,,2013-05-22 03:33:00,
2013-05-21 21:43:00,56.0,23.0,-100.00,WNW,298,8.0,14.0,28,0.00,,,0.00,1.000000,,2013-05-22 03:43:00,
2013-05-21 21:53:00,56.0,23.0,-100.00,WNW,298,8.0,14.0,28,0.00,,,0.00,1.000000,,2013-05-22 03:53:00,
2013-05-21 22:03:00,56.0,23.0,-100.00,WNW,298,8.0,14.0,28,0.00,,,0.00,1.000000,,2013-05-22 04:03:00,
2013-05-21 22:33:00,56.0,25.0,-100.00,NW,324,10.0,14.0,30,0.00,,,0.00,0.000000,,2013-05-22 04:33:00,
2013-05-21 22:43:00,56.0,25.0,-100.00,NW,324,10.0,14.0,30,0.00,,,0.00,0.000000,,2013-05-22 04:43:00,
2013-05-21 22:53:00,56.0,25.0,-100.00,NW,324,10.0,14.0,30,0.00,,,0.00,0.000000,,2013-05-22 04:53:00,
2013-05-21 23:02:00,56.0,25.0,-100.00,NW,324,10.0,14.0,30,0.00,,,0.00,0.000000,,2013-05-22 05:02:00,
2013-05-21 23:32:00,55.0,24.0,-100.00,NNW,333,10.0,15.0,30,0.00,,,0.00,0.000000,,2013-05-22 05:32:00,
2013-05-21 23:42:00,55.0,24.0,-100.00,NNW,333,10.0,15.0,30,0.00,,,0.00,0.000000,,2013-05-22 05:42:00,
2013-05-21 23:52:00,55.0,24.0,-100.00,NNW,333,10.0,15.0,30,0.00,,,0.00,0.000000,,2013-05-22 05:52:00,